This is the latest recevied weather packets stored in our database for station/object NC4M. If no packets are shown the sender has not sent any weather packets the latest 10 day(s).
| Time | Temp. | Humidity | Pressure | Rain* | Wind** | Luminosity | Snow |
|---|---|---|---|---|---|---|---|
| 1777761737 | 14.44° C | 38% | 1019.5 hPa | 0 mm | - | 48 W/m² | - |
| 1777761434 | 15° C | 38% | 1019.5 hPa | 0 mm | - | 47 W/m² | - |
| 1777761132 | 15.56° C | 36% | 1019.3 hPa | 0 mm | - | 53 W/m² | - |
| 1777760830 | 15.56° C | 36% | 1019.3 hPa | 0 mm | - | 96 W/m² | - |
| 1777760526 | 15.56° C | 35% | 1019.4 hPa | 0 mm | - | 73 W/m² | - |
| 1777760222 | 16.11° C | 34% | 1019.2 hPa | 0 mm | - | 136 W/m² | - |
| 1777759919 | 16.67° C | 36% | 1019.3 hPa | 0 mm | - | 75 W/m² | - |
| 1777759615 | 16.67° C | 35% | 1019.4 hPa | 0 mm | - | 115 W/m² | - |
| 1777759311 | 16.67° C | 32% | 1019.4 hPa | 0 mm | - | 383 W/m² | - |
| 1777759009 | 16.67° C | 32% | 1019.3 hPa | 0 mm | - | 501 W/m² | - |
| 1777758705 | 16.67° C | 37% | 1019.2 hPa | 0 mm | - | 359 W/m² | - |
| 1777758403 | 15.56° C | 35% | 1019.3 hPa | 0 mm | - | 545 W/m² | - |
| 1777758100 | 16.11° C | 34% | 1019.2 hPa | 0 mm | - | 140 W/m² | - |
| 1777757797 | 16.67° C | 32% | 1019.4 hPa | 0 mm | - | 302 W/m² | - |
| 1777757494 | 15.56° C | 37% | 1019.2 hPa | 0 mm | - | 575 W/m² | - |
| 1777757193 | 15° C | 37% | 1019.3 hPa | 0 mm | - | 532 W/m² | - |
| 1777756891 | 15° C | 36% | 1019.3 hPa | 0 mm | - | 94 W/m² | - |
| 1777756586 | 16.11° C | 35% | 1019.3 hPa | 0 mm | - | 82 W/m² | - |
| 1777756284 | 16.67° C | 31% | 1019.4 hPa | 0 mm | - | 92 W/m² | - |
| 1777755981 | 15.56° C | 34% | 1019.2 hPa | 0 mm | - | 590 W/m² | - |
| 1777755678 | 15.56° C | 34% | 1019.4 hPa | 0 mm | - | 94 W/m² | - |
| 1777755374 | 15.56° C | 35% | 1019.4 hPa | 0 mm | - | 590 W/m² | - |
| 1777755071 | 15° C | 36% | 1019.4 hPa | 0 mm | - | 234 W/m² | - |
| 1777754768 | 15° C | 34% | 1019.6 hPa | 0 mm | - | 150 W/m² | - |
| 1777754466 | 15.56° C | 35% | 1019.5 hPa | 0 mm | - | 151 W/m² | - |
* Rain latest hour (hover to see other rain measurements)
** Current wind speed in m/s (hover to see current wind gust speed)